Location: Blikhalm
(51.4500°N, 5.7000°E)
Time: 18:00:42
(UTC+00:00)

Daily predictions for brighter satellites

Satellite Brightness Start Highest point End
(mag) Time Altitude Azimuth Time Altitude Azimuth Time Altitude Azimuth
Cosmos 2219 Rocket 3.1 20:33:54 10° SSE 20:38:35 28° ESE 20:43:18 10° NE
Cosmos 2360 Rocket 2.2 20:34:38 10° SSW 20:40:14 71° ESE 20:45:54 10° NNE
IGS 5A 3.5 20:36:56 10° SSE 20:41:06 85° WSW 20:45:18 10° NNW
Cosmos 2333 Rocket 2.9 20:43:10 10° S 20:48:17 36° ESE 20:53:27 10° NE
ATLAS 2AS CENTAUR R/B 3.7 20:42:27 10° NW 20:49:59 49° NNE 20:56:58 10° ESE
Cosmos 1315 Rocket 3.5 20:46:13 10° N 20:50:08 43° ENE 20:54:04 10° SE
CZ-2C R/B 4.3 20:47:49 10° N 20:52:49 38° WNW 20:57:42 10° SW
Resurs 01 Rocket 3.3 20:49:10 10° SSW 20:53:06 31° W 20:57:03 10° NNW
Cosmos-2242 3.2 20:49:21 10° NNW 20:53:41 75° W 20:58:02 10° S
Cosmos 1818 3.5 20:49:58 10° SSW 20:55:23 75° SE 21:00:51 10° NE
Cosmos 773 Rocket 4.2 20:53:10 10° S 20:58:18 54° ESE 21:03:29 10° NNE
Cosmos 2221 3.6 20:54:34 10° N 20:58:34 33° ENE 21:02:29 10° SE
SL-16 R/B 3.4 20:53:49 10° SW 20:59:18 48° NW 21:04:49 10° NNE
ERS-1 Rocket 3.0 20:57:21 10° SSE 21:02:24 87° ENE 21:07:30 10° NNW
GEOS 3 Rocket 3.7 20:57:36 10° NE 21:02:58 63° SE 21:08:19 10° SSW
USA 215 3.6 21:00:14 10° ENE 21:06:27 43° SE 21:12:36 10° SSW
Cosmos 2278 Rocket 2.7 21:02:03 10° NNW 21:07:37 52° NE 21:13:08 10° SE
ATLAS 5 CENTAUR R/B 1.5 21:07:46 10° SW 21:11:59 82° SE 21:16:47 10° NE
Cosmos 1844 Rocket 3.6 21:07:06 10° NW 21:12:20 42° WSW 21:17:32 10° S
Meteor 1-11 4.2 21:07:25 10° S 21:13:00 73° E 21:18:43 10° NNE
Cosmos 1400 Rocket 3.8 21:09:12 10° NNW 21:13:01 43° W 21:16:45 10° SSW
Gblst 52 Del rocket 4.4 21:08:15 10° WNW 21:13:52 68° SSW 21:20:06 10° ESE
Cosmos 1943 Rocket 4.5 21:11:03 10° NNW 21:14:50 18° NNE 21:18:35 10° ENE
Cosmos 1758 Rocket 4.4 21:11:40 10° SSW 21:16:05 54° WNW 21:20:32 10° N
SPOT 5 3.0 21:14:06 10° SSE 21:19:09 79° WSW 21:23:56 10° NNW
Lacrosse 5 rocket 2.9 21:16:08 10° WNW 21:20:06 38° N 21:23:52 10° ENE
USA 81 4.1 21:20:40 10° S 21:25:56 84° E 21:31:16 10° N
BREEZE M DEB (TANK) 3.6 21:25:19 10° WSW 21:26:53 15° SW 21:27:39 13° S
Cosmos 2058 4.1 21:25:00 14° SE 21:27:50 28° E 21:31:21 10° NNE
Cosmos 2181 Rocket 4.2 21:21:28 10° NNW 21:27:50 77° W 21:34:05 10° S
Cosmos 1408 4.4 21:29:06 12° ESE 21:30:54 17° E 21:33:16 10° NE
TSX-5 3.7 21:31:04 10° NNW 21:34:26 67° NE 21:37:36 15° SE
Cosmos 2074 Rocket 4.2 21:29:15 11° S 21:35:10 58° E 21:41:15 10° NNE
Cosmos 1076 Rocket 4.4 21:36:09 16° SSE 21:39:01 32° E 21:42:49 10° NNE
Cosmos 1953 Rocket 4.2 21:34:57 10° SSW 21:39:11 55° WNW 21:43:28 10° N
USA 267 3.3 21:34:11 10° SE 21:40:45 80° SSW 21:47:22 10° WNW
CZ-4C R/B 4.3 21:37:24 10° NW 21:43:10 33° NNE 21:49:53 10° E
Cosmos 2084 4.0 21:40:36 10° NW 21:44:55 48° SW 21:48:05 17° SSE
Cosmos 1842 Rocket 3.6 21:41:08 10° NNW 21:45:30 80° W 21:49:02 15° S
Cosmos 2322 Rocket 4.3 21:41:58 10° WSW 21:46:53 30° NW 21:51:50 10° NNE
JB-3 4.4 21:43:18 10° NNE 21:47:06 56° E 21:49:57 16° S
COSMOS 2455 4.4 21:41:56 10° NNW 21:47:16 31° NNE 21:52:35 10° E
MTI 3.7 21:48:03 10° NNE 21:51:07 64° ESE 21:53:10 19° S
ATLAS CENTAUR R/B 2.2 21:52:57 10° WNW 21:56:17 32° WSW 21:58:26 17° S
Cosmos 923 Rocket 4.3 21:52:20 14° S 21:56:39 50° ESE 22:01:46 10° NNE
Cosmos 2369 Rocket 4.2 21:55:15 10° NNW 21:59:32 22° NE 22:03:48 10° E
Cosmos 1825 3.6 21:58:09 17° SE 21:59:56 25° E 22:03:04 10° NE
ALOS 2 4.0 21:58:03 13° ESE 22:01:19 30° ENE 22:05:08 10° N
Cosmos 1980 4.1 21:56:55 14° S 22:01:26 46° ESE 22:06:49 10° NE
COSMOS 2428 2.8 22:00:38 10° SSW 22:06:18 82° WNW 22:12:02 10° NNE
Cosmos 1869 3.7 22:02:32 10° NNW 22:06:27 56° W 22:09:22 17° S
Cosmos 1624 Rocket 4.2 22:07:55 10° NNW 22:13:10 66° ENE 22:16:57 19° SE
NOSS 3-4 (A) 3.8 22:06:35 10° NW 22:13:28 84° SW 22:19:46 16° SE
NOSS 3-4 (C) 3.8 22:06:42 10° NW 22:13:35 84° SW 22:19:55 16° SE
NOSS 0 Rocket 3.9 22:07:40 10° SSW 22:13:44 66° ESE 22:19:53 10° NE
Terra 3.0 22:10:34 11° SSW 22:14:39 35° W 22:19:02 10° NNW
Cosmos 2237 Rocket 2.3 22:14:58 15° S 22:19:40 59° ESE 22:25:17 10° NE
Genesis I 3.9 22:18:36 24° SSE 22:20:09 33° ESE 22:23:42 10° ENE
Cosmos 2219 Rocket 2.7 22:16:40 10° SW 22:22:11 59° NW 22:27:47 10° NNE
Cosmos 2344 3.9 22:16:02 13° S 22:22:16 45° ESE 22:29:47 10° NE
Cosmos 2360 Rocket 4.2 22:19:52 10° WSW 22:24:46 29° NW 22:29:43 10° NNE
NOSS 3-3 (A) 4.1 22:18:53 10° SW 22:24:53 81° NW 22:31:46 10° NE
NOSS 3-3 (C) 4.1 22:18:59 10° SW 22:24:59 82° NW 22:31:53 10° NE
Thor Agena Rocket 3.5 22:24:39 10° NNE 22:29:47 68° ESE 22:33:19 20° S
Cosmos 2333 Rocket 3.1 22:26:53 10° SW 22:32:25 50° NW 22:38:01 10° NNE
Cosmos 2184 Rocket 4.4 22:27:13 10° SSW 22:33:23 62° WNW 22:39:40 10° N
Cosmos 2221 4.0 22:32:13 10° NNW 22:36:05 31° W 22:39:20 13° SSW
Iridium 2 3.8 22:36:32 10° N 22:40:22 69° W 22:42:26 25° S
BREEZE-M DEB (TANK) 1.8 22:36:52 10° W 22:40:44 45° SSW 22:41:22 36° SSE
Cosmos 1371 Rocket 4.1 22:35:40 10° NNW 22:40:55 72° WSW 22:44:15 23° S
ATLAS 2AS CENTAUR R/B 2.9 22:33:50 10° NW 22:41:24 67° SW 22:46:25 20° SSE
EO 1 Del DPAF 3.1 22:39:09 10° NNE 22:42:56 82° ESE 22:44:59 26° S
MOS 1-B Rocket 4.4 22:36:43 10° NNE 22:44:40 79° ESE 22:49:56 18° S
Cosmos 1892 3.5 22:41:59 16° SW 22:44:47 46° WNW 22:48:29 10° N
Cosmos 1766 Rocket 4.0 22:44:24 25° SSE 22:46:36 47° E 22:50:51 10° NNE
Cosmos 1328 Rocket 3.9 22:43:46 10° N 22:48:01 53° ENE 22:50:25 24° SE
Aureole 2 Rocket 1.8 22:45:16 10° NNW 22:48:05 82° ENE 22:48:59 40° SSE
Okean 3 Rocket 3.8 22:47:02 26° SSE 22:49:24 57° E 22:53:46 10° NNE
USA 215 3.3 22:43:14 10° ENE 22:49:50 83° NNW 22:56:24 10° WSW
Cosmos 1606 2.8 22:46:32 10° N 22:50:25 69° ENE 22:52:19 28° SSE
Cosmos 2278 Rocket 3.3 22:46:28 10° NW 22:51:31 34° WSW 22:54:59 18° SSW
Cosmos 2112 Rocket 4.0 22:48:23 16° SSW 22:52:40 90° W 22:58:05 10° NNE
Cosmos 2297 3.7 22:47:29 10° NNW 22:53:17 88° ENE 22:57:12 21° SSE
Cosmos 2218 Rocket 4.4 22:50:54 21° SSE 22:55:00 53° E 23:01:06 10° NNE
Cosmos 158 Rocket 3.9 22:52:56 16° SSW 22:56:51 78° WNW 23:01:49 10° NNE
Cosmos 1420 Rocket 4.1 22:51:50 10° NNW 22:57:09 80° ENE 23:00:36 22° SSE
ATLAS 5 CENTAUR R/B 3.9 22:53:14 10° W 22:57:11 29° NNW 23:01:39 10° NE
Lacrosse 5 rocket 2.2 22:55:53 10° WNW 22:59:51 47° NNE 23:03:36 10° E
Cosmos 1943 Rocket 2.7 22:54:18 10° NNW 22:59:54 55° NE 23:04:40 14° SE
Cosmos 2366 rocket 4.3 22:56:35 22° SSE 23:00:40 56° E 23:06:52 10° NNE
Spot 4 4.5 22:59:07 21° SSW 23:01:58 46° W 23:06:35 10° NNW
Cosmos 1633 4.2 23:01:11 18° ESE 23:02:27 22° E 23:05:20 10° NE
SL-16 R/B 2.5 23:00:47 24° S 23:04:01 50° ESE 23:09:31 10° NE
TIMED 4.4 23:01:49 24° SSW 23:04:27 84° ESE 23:08:52 10° NNE
Cosmos 2058 4.3 23:01:10 12° SW 23:04:39 33° WNW 23:08:26 10° N
Cosmos 2056 Rocket 3.9 22:59:32 10° NNW 23:04:49 55° WSW 23:07:58 24° S
Cosmos 1408 3.5 23:03:24 19° SW 23:05:37 41° WNW 23:09:02 10° N
Cosmos 2341 Rocket 4.1 23:11:46 20° SSW 23:16:18 76° WNW 23:22:32 10° N
Cosmos 332 Rocket 3.8 23:13:43 10° NNW 23:18:33 79° ENE 23:21:28 24° SSE
Cosmos 1680 Rocket 4.3 23:16:00 10° SW 23:21:11 51° WNW 23:26:24 10° NNE
Meteor 2-3 Rocket 3.9 23:21:02 24° S 23:24:23 65° E 23:30:03 10° NNE
USA 267 4.2 23:21:24 21° S 23:24:25 30° SW 23:30:06 10° WNW
Cosmos 2151 3.7 23:23:52 20° SW 23:26:33 49° WNW 23:30:44 10° N
IRIDIUM 104 4.3 23:23:26 25° S 23:26:34 84° W 23:31:50 10° N
Helios 1A 2.9 23:24:53 29° SSE 23:26:58 89° ENE 23:31:11 10° NNW
Cosmos 405 3.5 23:24:05 10° N 23:27:35 53° ENE 23:29:08 29° SE
Meteor 1-26 Rocket 4.4 23:25:33 10° NNW 23:31:36 85° W 23:35:20 24° S
Cosmos 1452 Rocket 3.5 23:26:39 10° NNW 23:31:57 81° WSW 23:35:06 25° SSE
CZ-4C R/B 3.2 23:26:04 10° NW 23:32:53 67° NE 23:40:56 10° ESE
COSMOS 2455 2.8 23:27:49 10° NW 23:33:54 85° SW 23:38:24 19° SSE
SL-8 Rocket 4.1 23:30:59 21° SSW 23:35:15 74° WNW 23:41:26 10° N
Cosmos 1825 3.6 23:32:56 16° SW 23:35:20 31° WNW 23:38:46 10° N
IRIDIUM 114 4.4 23:32:35 24° SSW 23:35:45 71° W 23:41:00 10° N
Cosmos 1340 2.6 23:34:23 33° S 23:35:59 89° ENE 23:39:47 10° NNE
Cosmos 1933 3.8 23:32:32 10° NNW 23:36:27 51° W 23:38:13 28° SSW
ALOS 2 3.5 23:35:27 23° SSW 23:37:33 38° W 23:41:41 10° NNW
Cosmos 1151 Rocket 3.5 23:33:47 10° NNW 23:37:59 48° W 23:40:03 26° SSW
Cosmos 1408 Rocket 3.5 23:35:56 29° S 23:38:10 90° E 23:42:36 10° N
SL-16 R/B 4.3 23:34:21 10° ESE 23:39:28 27° NE 23:44:36 10° N
Meteor 2-12 Rocket 4.5 23:37:28 22° SSW 23:41:32 79° WNW 23:47:44 10° N
Cosmos 1727 Rocket 4.0 23:37:46 10° NNW 23:44:02 82° W 23:48:04 24° S
APEX 2.7 23:41:31 10° NW 23:44:10 46° WSW 23:44:22 44° SW
Cosmos 2369 Rocket 2.3 23:38:51 10° NNW 23:44:30 78° ENE 23:48:49 18° SE
Resurs 1-4 Rocket 4.4 23:42:20 10° ENE 23:44:40 13° E 23:46:59 10° ESE
GP-B 3.9 23:42:07 10° N 23:46:20 43° W 23:48:50 21° SW
Cosmos 44 2.9 23:43:37 22° SW 23:46:24 90° SSE 23:50:54 10° NE
Cosmos 1500 Rocket 3.8 23:44:49 28° SSE 23:46:59 58° E 23:51:18 10° NNE
Cosmos 371 Rocket 3.8 23:43:30 10° NW 23:48:08 45° WSW 23:50:25 26° SSW
SL-4 R/B 2.4 23:48:59 21° WNW 23:48:59 21° WNW 23:50:18 10° NW
SeaSat 1 4.5 23:46:18 10° ENE 23:49:03 15° ESE 23:51:20 11° SE
Helios 1B rocket 3.2 23:49:35 10° NNE 23:53:31 41° E 23:55:23 25° SSE
CREW DRAGON DEMO-1 DEB 2.7 23:54:49 27° WSW 23:56:17 69° SSE 23:59:21 10° E
